Simultaneous Nadir Overpasses (SNOs) Predictions

Prediction of SNOs between GOES-17 and METOP-C Satellite Orbit:

Table of predicted SNOs for the next 14.0 days since TLE Epoch: 4/23/2022
Index Date Time (GOES-17) GOES-17 Lat,Lon METOP-C Lat,Lon Distance(km) Time Diff (sec)
1 04/23/2022 18:47:41 0.05,-137.19 0.51,-139.35 245.26 80
2 04/24/2022 18:29:41 0.05,-137.19 -0.57,-134.34 324.08 80
3 04/26/2022 06:48:41 -0.04,-137.19 -0.41,-138.95 200.03 80
4 04/27/2022 06:25:20 -0.04,-137.19 0.66,-133.94 369.28 80
5 04/28/2022 18:44:12 0.04,-137.19 0.34,-138.51 149.69 80
6 04/29/2022 18:26:12 0.04,-137.19 -0.80,-133.52 419.46 80
7 05/01/2022 06:45:12 -0.04,-137.18 -0.24,-138.11 105.36 80
8 05/02/2022 06:21:52 -0.04,-137.18 0.89,-133.12 463.25 80
9 05/03/2022 18:40:42 0.03,-137.17 0.14,-137.67 56.95 80
10 05/06/2022 06:41:42 -0.03,-137.14 -0.05,-137.27 15.10 80
